SCP
0 0 0 0 0 0 -0 -0 -0 -0 0 0 0 0 0 0 0 0 -0 -0 -0 -0 -0 -0 -0 -0 -0 -0 -0 -0 0 0 0 0 -0 -0 -0 -0 -0 -0 -0 0 0 0 0 0 0 0 0
0 0 0 0 0 0 -0 0 0 -0 -0 0 -0 -0 -0 0 0 -0 -0 -0 -0 -0 -0 -0 -0 -0 -0 -0 -0 -0 -0 0 -0 -0 -0 -0 -0 0 0 -0 -0 0 0 0 0 0 0 0 0
0 0 0 0 0 0 0 0 -0 -0 -0 0 0 0 0 0 0 0 -0 -0 -0 -0 -0 -0 -0 -0 -0 -0 -0 -0 0 0 0 -0 -0 -0 -0 -0 -0 -0 0 0 0 0 0 0 0 0 0
0 0 0 0 -0 0 0 0 0 -0 -0 -0 -0 0 0 0 0 -0 -1 -1 -0 -0 -0 -0 -0 -0 -0 -0 -0 -0 -0 -0 -0 -0 -0 -0 -0 -0 0 0 0 0 0 0 0 0 0 0 0
0 0 0 0 0 0 0 0 0 -0 -0 -0 -0 0 0 0 0 -0 -0 -0 -0 -0 -0 -0 -0 -0 -0 -0 -0 -0 -0 -0 -0 -0 -0 0 0 0 0 0 0 0 0 0 0 0 0 0 0
0 0 0 0 0 0 0 0 -0 -0 -0 -0 -0 0 0 0 0 -0 -0 -0 -0 -0 -0 -0 -0 -0 -0 -0 -0 -0 -0 -0 -0 0 0 0 0 0 0 0 0 0 0 0 0 0 0 0 0
0 0 0 0 -0 0 0 -0 -0 -0 0 -0 -0 0 0 0 0 0 -0 -0 -0 -0 -0 0 -0 -0 -0 -0 -0 -0 -0 -0 0 0 0 0 0 0 0 0 0 0 0 0 0 0 0 0 0
0 0 0 -0 -0 0 0 -0 0 0 0 0 -0 0 0 0 0 0 -0 -0 -0 -0 -0 -0 -0 0 -0 -0 -0 -0 -0 0 0 0 0 0 0 0 0 0 0 0 0 0 0 0 0 0 0
0 -0 0 -0 -0 0 0 0 0 0 0 0 0 0 -0 -0 -0 0 -0 -0 -0 -0 -0 0 0 0 -0 -0 -0 0 0 0 0 0 0 0 0 0 0 0 0 0 0 0 0 0 0 0 0
0 -0 0 -0 0 0 0 0 0 0 0 0 0 0 -0 -0 -0 0 -0 -0 -0 -0 -0 0 0 0 0 -0 -0 -0 -0 0 0 0 0 0 0 0 0 0 0 0 0 0 0 0 0 0 0
0 -0 0 0 0 -0 -0 0 0 0 0 0 0 0 0 -0 -0 0 0 -0 -0 -0 -0 -0 0 -0 -0 -0 -0 -0 0 0 0 0 0 0 0 0 0 0 0 0 0 0 0 0 0 0 0
0 0 0 0 0 0 0 0 0 0 0 -0 0 0 0 0 0 0 0 -0 -0 -0 -0 -0 0 -0 0 0 0 0 0 0 0 0 0 0 0 0 0 0 0 0 0 0 0 0 0 0 0
0 0 0 0 0 -0 0 0 -0 0 0 0 0 0 0 -0 0 0 0 -0 -0 -0 -0 -0 0 0 0 0 0 0 0 0 0 0 0 0 0 0 0 0 0 0 0 0 0 0 0 0 0
0 0 0 -0 0 -0 -0 0 0 0 0 0 0 0 0 -0 0 0 0 -0 -0 -0 -0 0 0 0 0 0 0 0 0 0 0 0 0 0 0 0 0 0 0 0 0 0 0 0 0 0 0
0 0 0 0 0 -0 0 0 0 0 0 0 0 0 -0 -0 -0 0 0 -0 -0 -0 -0 0 0 0 0 0 0 0 0 0 0 0 0 0 0 0 0 0 0 0 0 0 0 0 0 0 0
0 0 -0 0 0 0 0 0 0 0 0 0 0 0 -0 0 0 -0 -0 -0 -0 -1 -0 0 0 0 0 0 0 0 0 0 0 0 0 0 0 0 0 0 0 0 0 0 0 0 0 0 0
-0 0 0 -0 -0 0 0 0 0 0 0 0 0 0 0 0 -0 0 -0 -1 -1 -1 -0 0 0 0 0 0 0 0 0 0 0 0 0 0 0 0 0 0 0 0 0 0 0 0 0 0 0
-0 -0 -0 0 -0 0 0 0 0 0 0 -0 0 0 0 0 1 -0 -1 -1 -1 -0 0 -0 0 0 0 0 0 0 0 0 0 0 0 0 0 0 0 0 0 0 0 0 0 0 0 0 0
0 0 0 0 -0 0 0 0 0 0 0 0 0 0 0 1 0 0 -0 -0 0 0 0 0 0 0 0 0 0 0 0 0 0 0 0 0 0 0 0 0 0 0 0 0 0 0 0 0 0
0 0 0 0 0 0 0 0 0 0 0 0 0 0 0 1 3 0 1 0 0 0 0 0 0 0 0 0 0 0 0 0 0 0 0 0 0 0 0 0 0 0 0 0 0 0 0 0 0
0 0 0 0 0 0 0 0 0 -0 0 0 0 0 0 -0 -0 -1 1 1 0 0 0 0 0 0 0 0 0 0 0 0 0 0 0 0 0 0 0 0 0 0 0 0 0 0 0 0 0
0 0 0 0 0 0 0 -0 0 0 -0 0 0 0 0 0 0 -0 0 -0 0 0 0 0 0 0 0 0 0 0 0 0 0 0 0 0 0 0 0 0 0 0 0 0 0 0 0 0 0
-0 0 0 0 0 0 0 0 -0 -0 -0 0 0 0 0 1 1 1 -0 -1 0 0 0 0 0 0 0 0 0 0 0 0 0 0 0 0 0 0 0 0 0 0 0 0 0 0 0 0 0
0 0 0 0 0 -0 0 0 -0 0 0 0 0 0 0 1 2 4 1 1 0 0 0 0 0 0 0 0 0 0 0 0 0 0 0 0 0 0 0 0 0 0 0 0 0 0 0 0 0
0 0 0 0 0 0 0 0 -0 0 -0 -0 0 0 0 2 3 4 2 1 1 0 0 0 0 0 0 0 0 0 0 0 0 0 0 0 0 0 0 0 0 0 0 0 0 0 0 0 0
0 0 0 0 -0 0 0 0 0 -0 -0 -0 -0 -0 0 0 2 2 0 1 1 0 0 0 0 0 0 0 0 0 0 0 0 0 0 0 0 0 0 0 0 0 0 0 0 0 0 0 0
-0 0 -0 0 0 -0 0 0 0 0 0 0 0 0 0 -0 0 0 0 1 1 0 0 0 0 0 0 0 0 0 0 0 0 0 0 0 0 0 0 0 0 0 0 0 0 0 0 0 0
0 0 0 0 0 0 0 -0 0 0 0 0 -0 -0 -0 -0 -0 1 2 2 1 0 0 0 0 0 0 0 0 0 0 0 0 0 0 0 0 0 0 0 0 0 0 0 0 0 0 0 0
0 0 0 0 0 0 0 -0 -0 -0 -0 -0 -0 -0 -0 -0 -0 0 0 0 0 0 0 0 0 0 0 0 0 0 0 0 0 0 0 0 0 0 0 0 0 0 0 0 0 0 0 0 0
0 0 0 0 0 0 0 -0 0 -0 -0 -0 0 0 -0 -0 -0 -0 -0 0 0 -0 0 0 0 0 0 0 0 0 0 0 0 0 0 0 0 0 0 0 0 0 0 0 0 0 0 0 0
Wind_Speed_500mb
26 20 9 6 7 10 4 7 12 30 21 23 43 32 17 17 6 8 50 39 31 42 41 34 31 28 24 21 19 17 19 21 21 21 21 21 22 22 22 22 21 21 21 21 22 23 24 24 23
24 17 16 9 5 8 7 16 20 33 27 28 56 50 38 12 32 54 47 33 31 41 39 36 30 25 22 19 19 20 21 21 20 21 20 20 19 18 18 18 19 19 18 19 19 19 19 20 21
24 15 9 9 7 10 10 20 26 46 62 12 17 34 18 30 45 42 41 32 35 37 38 34 28 24 22 20 21 21 21 21 22 22 21 20 19 20 20 21 22 22 23 24 24 24 24 23 22
15 7 14 3 16 2 17 17 32 10 45 27 43 23 24 37 44 50 41 25 31 32 32 32 26 25 23 22 21 21 23 24 24 23 20 19 19 20 21 23 23 24 24 24 24 24 24 23 24
10 13 5 8 19 14 10 17 35 16 1 52 42 21 24 36 48 42 39 35 25 32 34 31 28 25 24 24 25 26 26 25 21 19 20 21 20 20 21 21 22 22 22 23 24 24 25 25 25
10 8 6 10 12 22 8 47 46 27 43 55 50 39 22 52 52 50 44 31 27 26 34 34 30 28 26 27 28 25 23 21 19 18 17 18 18 19 22 24 26 28 27 27 27 27 28 28 26
19 4 13 22 30 22 25 58 28 38 47 41 63 26 39 51 47 46 51 42 22 33 35 34 32 30 30 29 26 22 19 15 16 17 16 16 17 20 21 27 29 31 28 26 27 27 25 22 19
34 4 17 30 17 8 14 62 57 27 19 72 71 18 43 62 50 55 59 37 17 20 32 34 32 30 29 26 22 17 13 12 14 14 13 15 19 24 24 31 32 35 31 30 31 28 22 20 12
44 6 19 31 15 11 11 22 32 43 31 22 24 61 68 58 51 61 60 39 23 25 42 42 35 29 26 20 16 12 12 11 12 10 10 14 15 15 14 18 22 28 26 27 30 29 24 31 33
8 8 20 33 19 9 18 13 39 33 52 38 59 58 56 57 54 61 65 53 43 38 36 39 30 27 27 20 13 9 8 10 13 8 8 4 13 15 16 16 16 19 21 21 13 19 28 28 36
35 18 28 48 51 53 19 39 38 53 23 49 53 49 47 47 53 57 56 48 59 51 46 36 32 25 18 20 11 10 4 13 9 8 8 8 14 15 17 17 17 19 21 22 15 29 28 34 26
15 46 50 58 60 53 8 4 18 58 43 73 80 68 63 49 54 56 50 53 74 72 54 45 37 31 24 20 24 18 16 17 12 6 7 10 14 15 17 18 17 21 27 23 28 26 33 27 24
15 27 61 64 57 53 30 12 18 32 92 73 69 67 69 58 57 57 53 54 69 73 54 51 49 45 38 37 33 27 19 13 15 6 8 12 15 12 15 15 19 19 25 27 30 27 25 19 26
39 33 50 49 55 46 16 9 1 41 72 64 67 63 67 61 60 60 60 61 65 55 54 52 51 45 38 40 37 25 17 17 6 6 8 14 14 10 11 18 22 13 21 20 17 21 17 23 31
42 18 21 24 21 20 43 7 14 75 66 70 60 61 37 55 65 67 64 59 52 49 47 45 43 44 42 39 29 23 15 10 5 7 11 14 12 8 14 22 17 17 12 7 6 10 14 22 26
17 10 12 21 16 35 20 15 18 78 74 58 72 47 49 64 65 72 73 67 56 55 52 44 39 38 31 28 27 20 22 16 7 8 9 13 12 10 16 22 10 8 2 6 5 10 14 13 19
12 12 15 21 31 21 20 14 15 42 74 71 88 111 106 91 46 79 72 77 71 66 61 48 42 33 30 33 31 24 26 17 12 10 4 10 15 11 17 19 9 11 14 8 8 24 12 14 3
15 12 18 18 27 18 19 16 18 33 37 91 89 107 80 67 21 71 81 80 77 70 58 47 42 36 35 35 30 29 25 20 15 7 3 9 15 8 11 13 9 16 20 11 4 11 12 23 18
17 13 16 18 25 4 17 4 12 22 9 64 66 57 51 81 87 62 90 86 81 71 62 55 45 41 38 37 34 31 28 19 12 3 5 8 11 9 2 9 9 16 23 17 9 11 16 25 29
15 16 21 23 19 6 6 9 13 17 13 59 57 59 67 58 29 54 90 89 84 77 68 59 50 42 36 31 24 21 20 19 7 2 4 12 11 8 3 12 11 11 15 15 14 15 23 25 32
13 12 17 18 22 17 7 14 18 19 31 35 54 53 85 94 99 109 92 90 87 77 68 59 50 42 35 39 35 38 36 23 13 7 6 10 9 7 11 11 9 6 8 19 13 11 14 15 24
11 20 16 24 10 8 7 11 16 16 21 15 41 41 103 113 92 84 106 96 81 68 59 54 53 42 42 42 38 50 36 27 21 9 2 9 6 7 10 12 6 12 17 18 13 9 8 12 23
17 12 13 14 15 13 23 7 16 20 16 16 23 61 58 72 77 103 112 93 70 62 55 53 54 45 53 45 44 44 33 26 24 15 7 2 4 7 10 12 11 10 13 20 23 25 13 19 22
13 13 18 14 4 11 15 8 19 18 14 18 17 49 62 67 88 80 69 56 43 46 44 51 47 51 49 45 39 45 31 34 32 24 11 8 11 8 10 3 5 9 5 12 18 20 23 15 17
6 3 6 9 2 16 13 11 15 20 53 53 14 20 29 29 89 79 70 53 19 51 43 47 54 54 51 47 43 43 38 35 29 19 13 7 8 6 6 2 3 7 5 15 12 14 19 17 10
11 10 10 7 10 11 12 7 8 43 61 92 91 85 77 54 46 59 52 35 39 47 48 52 56 56 56 58 50 49 45 39 26 19 15 8 14 12 11 8 8 4 11 3 6 10 11 13 17
14 9 3 15 12 9 3 19 34 44 42 49 45 65 71 36 26 23 19 35 56 57 62 64 58 53 55 62 55 56 47 42 30 29 31 33 21 20 13 10 10 5 15 9 5 3 11 16 10
9 4 13 9 5 13 9 10 3 20 19 30 26 36 51 52 36 37 52 62 47 53 64 62 53 51 53 52 53 50 42 37 33 27 30 33 27 20 18 14 11 6 5 11 12 9 4 12 8
16 6 12 7 3 7 6 4 12 4 12 8 17 27 31 29 19 15 49 52 42 50 50 54 45 48 45 47 52 45 44 38 34 27 28 31 34 29 24 15 9 6 4 14 15 9 5 2 6
13 6 7 10 11 2 5 12 16 17 16 21 21 15 30 27 11 16 40 19 25 35 52 53 45 45 49 52 54 47 49 44 38 32 34 27 26 33 23 15 12 10 7 9 12 13 3 12 12
Wind_Direction_500mb
311 324 350 116 75 67 128 235 281 279 299 42 85 93 90 71 135 152 146 156 141 144 143 145 142 137 128 119 111 101 91 81 74 67 61 60 57 52 44 37 29 22 17 14 9 1 355 350 348
300 320 299 264 158 123 222 202 241 253 275 104 93 93 78 73 102 126 132 130 141 144 146 146 141 133 127 118 108 98 89 83 78 74 71 68 60 50 38 27 18 13 4 1 1 357 354 349 346
291 281 240 179 192 208 172 225 213 249 274 193 111 88 74 123 121 136 133 131 137 141 147 141 139 136 124 115 107 99 93 86 79 72 62 50 35 26 16 9 2 357 352 350 347 346 343 341 339
309 267 245 180 261 153 174 210 230 246 275 117 111 79 101 137 131 135 144 157 144 132 143 139 139 129 127 123 113 106 96 87 70 58 45 35 21 12 6 2 357 356 353 350 346 342 338 333 332
309 259 258 278 259 150 212 260 258 209 269 108 104 117 117 135 138 139 154 164 143 139 150 142 136 135 128 118 107 99 89 79 68 51 31 20 18 20 23 23 14 8 0 354 346 340 334 329 327
260 248 327 277 293 168 208 162 207 223 127 112 111 122 118 140 143 148 163 174 152 143 151 142 140 136 126 117 109 101 92 78 59 43 34 37 47 43 38 28 14 5 356 351 342 339 333 328 324
228 294 262 284 273 191 186 195 194 208 151 136 135 123 140 150 159 158 170 163 146 144 151 144 138 130 124 118 112 104 93 78 61 53 47 38 39 39 26 18 360 3 358 357 357 0 354 348 353
257 171 285 272 294 301 306 184 198 208 119 141 136 145 163 163 161 155 164 158 127 135 146 135 130 127 123 119 117 112 99 77 56 48 40 37 27 27 13 3 353 6 15 9 6 18 7 347 333
259 292 262 272 293 233 259 120 134 149 116 133 192 154 152 159 160 153 155 147 154 143 135 129 117 116 120 108 108 103 81 61 47 50 51 31 37 20 5 355 350 5 10 0 7 356 345 342 341
269 244 253 263 282 292 288 228 140 105 82 63 97 125 147 158 167 159 155 161 169 167 147 144 123 116 125 86 79 104 74 38 39 55 77 34 27 11 359 8 343 357 343 338 16 338 348 34 31
257 251 270 278 289 297 217 121 145 99 70 107 112 134 151 168 175 171 169 184 171 172 162 148 136 130 130 103 120 112 343 321 25 15 42 19 18 10 13 23 2 351 347 1 358 11 43 38 15
234 259 258 271 280 293 256 3 177 141 166 154 155 147 163 189 188 179 175 176 168 171 166 155 147 148 146 144 156 182 259 288 315 19 33 13 14 18 28 25 3 353 3 17 25 42 43 24 7
237 251 259 267 276 286 292 337 98 123 150 158 156 162 167 189 196 182 175 166 166 166 167 159 158 168 169 172 178 208 236 261 309 2 15 12 22 41 28 360 351 357 26 35 49 36 39 22 359
269 263 258 268 275 287 300 224 314 167 163 177 181 166 166 190 196 177 168 162 163 167 167 169 176 185 198 191 199 217 226 249 283 318 20 26 38 53 6 357 9 28 39 30 44 51 38 25 31
292 296 308 285 269 275 290 277 252 175 172 162 161 161 177 194 200 185 182 170 172 170 176 182 188 197 199 200 196 189 203 223 283 314 14 31 46 27 8 15 37 57 48 3 60 96 74 35 24
300 299 279 282 276 269 259 257 281 171 161 128 126 135 197 243 228 188 183 184 188 192 203 208 201 199 189 187 189 190 194 217 267 295 352 30 35 29 26 28 58 53 25 317 54 97 89 51 53
285 239 245 264 248 228 182 226 230 182 158 149 146 155 182 216 234 188 188 185 196 205 207 212 204 205 196 188 193 198 200 207 210 247 338 22 49 30 24 23 41 23 323 0 88 74 67 14 357
264 239 269 246 250 231 214 201 228 228 249 166 173 181 202 193 214 186 194 188 194 199 204 210 209 205 189 196 192 196 198 194 208 224 96 8 58 45 29 19 28 36 21 45 112 74 47 28 18
255 292 316 308 321 148 178 212 258 244 196 155 189 195 155 164 185 201 195 188 189 193 202 209 211 203 198 192 192 188 182 188 198 194 10 47 30 93 299 57 40 41 25 47 85 97 76 44 20
3 345 312 309 315 19 0 311 291 281 224 178 185 183 160 149 157 207 194 190 193 196 202 207 212 208 194 194 169 168 168 190 197 336 63 35 28 57 150 103 119 43 13 53 72 122 80 65 40
323 290 291 283 310 335 91 317 288 285 258 210 189 193 159 164 181 189 196 194 194 196 198 209 213 208 192 176 179 180 187 195 203 199 102 26 19 54 116 131 131 73 5 33 71 74 89 73 66
289 256 270 248 324 282 86 278 293 261 269 195 196 193 166 172 185 193 195 195 197 197 204 212 209 202 187 184 196 199 207 206 188 199 53 356 29 78 85 110 115 56 37 47 62 36 78 82 84
243 356 358 344 347 22 310 13 277 304 276 220 209 207 208 201 194 187 196 200 194 198 211 210 202 189 189 192 203 211 192 192 186 198 245 275 113 106 68 72 79 62 31 41 39 45 88 93 87
9 354 352 341 333 312 278 242 288 282 252 267 250 209 216 188 191 181 184 179 185 203 203 199 196 186 188 197 202 191 187 191 193 209 222 141 101 104 102 87 54 119 64 26 40 44 53 117 97
179 53 316 324 337 237 313 324 247 326 47 27 334 36 31 190 159 156 167 165 204 235 216 209 197 189 191 199 192 189 197 210 214 204 189 136 159 165 171 352 199 110 65 23 72 28 37 98 112
337 172 166 294 316 273 276 259 27 41 39 57 27 47 49 67 104 146 161 204 195 204 212 208 202 193 193 194 191 194 199 211 207 194 171 173 219 235 233 309 187 150 134 68 73 21 10 89 80
312 343 298 229 292 7 332 359 20 18 30 47 53 50 59 80 124 145 178 179 181 196 211 218 212 199 198 196 196 197 204 210 200 187 176 201 206 209 238 261 191 234 165 184 196 305 31 84 40
214 6 23 18 47 315 355 61 19 343 7 37 40 55 90 100 106 148 165 176 178 228 212 209 215 205 202 202 202 202 201 202 194 190 190 192 203 209 220 194 213 228 183 175 190 209 29 81 49
347 28 59 118 178 238 312 224 210 134 304 316 91 68 71 98 86 204 187 190 277 210 200 211 213 202 203 204 207 199 195 202 207 204 209 202 213 213 210 215 195 186 307 196 212 193 87 297 311
283 1 105 102 295 127 139 269 206 210 197 253 114 8 62 75 106 161 228 218 172 216 204 207 212 209 208 208 211 198 198 205 212 211 207 214 213 220 222 172 197 201 254 255 199 174 259 241 272
Wind_Speed_850mb
26 20 9 6 7 10 4 7 12 30 21 23 43 32 17 17 6 8 50 39 31 42 41 34 31 28 24 21 19 17 19 21 21 21 21 21 22 22 22 22 21 21 21 21 22 23 24 24 23
24 17 16 9 5 8 7 16 20 33 27 28 56 50 38 12 32 54 47 33 31 41 39 36 30 25 22 19 19 20 21 21 20 21 20 20 19 18 18 18 19 19 18 19 19 19 19 20 21
24 15 9 9 7 10 10 20 26 46 62 12 17 34 18 30 45 42 41 32 35 37 38 34 28 24 22 20 21 21 21 21 22 22 21 20 19 20 20 21 22 22 23 24 24 24 24 23 22
15 7 14 3 16 2 17 17 32 10 45 27 43 23 24 37 44 50 41 25 31 32 32 32 26 25 23 22 21 21 23 24 24 23 20 19 19 20 21 23 23 24 24 24 24 24 24 23 24
10 13 5 8 19 14 10 17 35 16 1 52 42 21 24 36 48 42 39 35 25 32 34 31 28 25 24 24 25 26 26 25 21 19 20 21 20 20 21 21 22 22 22 23 24 24 25 25 25
10 8 6 10 12 22 8 47 46 27 43 55 50 39 22 52 52 50 44 31 27 26 34 34 30 28 26 27 28 25 23 21 19 18 17 18 18 19 22 24 26 28 27 27 27 27 28 28 26
19 4 13 22 30 22 25 58 28 38 47 41 63 26 39 51 47 46 51 42 22 33 35 34 32 30 30 29 26 22 19 15 16 17 16 16 17 20 21 27 29 31 28 26 27 27 25 22 19
34 4 17 30 17 8 14 62 57 27 19 72 71 18 43 62 50 55 59 37 17 20 32 34 32 30 29 26 22 17 13 12 14 14 13 15 19 24 24 31 32 35 31 30 31 28 22 20 12
44 6 19 31 15 11 11 22 32 43 31 22 24 61 68 58 51 61 60 39 23 25 42 42 35 29 26 20 16 12 12 11 12 10 10 14 15 15 14 18 22 28 26 27 30 29 24 31 33
8 8 20 33 19 9 18 13 39 33 52 38 59 58 56 57 54 61 65 53 43 38 36 39 30 27 27 20 13 9 8 10 13 8 8 4 13 15 16 16 16 19 21 21 13 19 28 28 36
35 18 28 48 51 53 19 39 38 53 23 49 53 49 47 47 53 57 56 48 59 51 46 36 32 25 18 20 11 10 4 13 9 8 8 8 14 15 17 17 17 19 21 22 15 29 28 34 26
15 46 50 58 60 53 8 4 18 58 43 73 80 68 63 49 54 56 50 53 74 72 54 45 37 31 24 20 24 18 16 17 12 6 7 10 14 15 17 18 17 21 27 23 28 26 33 27 24
15 27 61 64 57 53 30 12 18 32 92 73 69 67 69 58 57 57 53 54 69 73 54 51 49 45 38 37 33 27 19 13 15 6 8 12 15 12 15 15 19 19 25 27 30 27 25 19 26
39 33 50 49 55 46 16 9 1 41 72 64 67 63 67 61 60 60 60 61 65 55 54 52 51 45 38 40 37 25 17 17 6 6 8 14 14 10 11 18 22 13 21 20 17 21 17 23 31
42 18 21 24 21 20 43 7 14 75 66 70 60 61 37 55 65 67 64 59 52 49 47 45 43 44 42 39 29 23 15 10 5 7 11 14 12 8 14 22 17 17 12 7 6 10 14 22 26
17 10 12 21 16 35 20 15 18 78 74 58 72 47 49 64 65 72 73 67 56 55 52 44 39 38 31 28 27 20 22 16 7 8 9 13 12 10 16 22 10 8 2 6 5 10 14 13 19
12 12 15 21 31 21 20 14 15 42 74 71 88 111 106 91 46 79 72 77 71 66 61 48 42 33 30 33 31 24 26 17 12 10 4 10 15 11 17 19 9 11 14 8 8 24 12 14 3
15 12 18 18 27 18 19 16 18 33 37 91 89 107 80 67 21 71 81 80 77 70 58 47 42 36 35 35 30 29 25 20 15 7 3 9 15 8 11 13 9 16 20 11 4 11 12 23 18
17 13 16 18 25 4 17 4 12 22 9 64 66 57 51 81 87 62 90 86 81 71 62 55 45 41 38 37 34 31 28 19 12 3 5 8 11 9 2 9 9 16 23 17 9 11 16 25 29
15 16 21 23 19 6 6 9 13 17 13 59 57 59 67 58 29 54 90 89 84 77 68 59 50 42 36 31 24 21 20 19 7 2 4 12 11 8 3 12 11 11 15 15 14 15 23 25 32
13 12 17 18 22 17 7 14 18 19 31 35 54 53 85 94 99 109 92 90 87 77 68 59 50 42 35 39 35 38 36 23 13 7 6 10 9 7 11 11 9 6 8 19 13 11 14 15 24
11 20 16 24 10 8 7 11 16 16 21 15 41 41 103 113 92 84 106 96 81 68 59 54 53 42 42 42 38 50 36 27 21 9 2 9 6 7 10 12 6 12 17 18 13 9 8 12 23
17 12 13 14 15 13 23 7 16 20 16 16 23 61 58 72 77 103 112 93 70 62 55 53 54 45 53 45 44 44 33 26 24 15 7 2 4 7 10 12 11 10 13 20 23 25 13 19 22
13 13 18 14 4 11 15 8 19 18 14 18 17 49 62 67 88 80 69 56 43 46 44 51 47 51 49 45 39 45 31 34 32 24 11 8 11 8 10 3 5 9 5 12 18 20 23 15 17
6 3 6 9 2 16 13 11 15 20 53 53 14 20 29 29 89 79 70 53 19 51 43 47 54 54 51 47 43 43 38 35 29 19 13 7 8 6 6 2 3 7 5 15 12 14 19 17 10
11 10 10 7 10 11 12 7 8 43 61 92 91 85 77 54 46 59 52 35 39 47 48 52 56 56 56 58 50 49 45 39 26 19 15 8 14 12 11 8 8 4 11 3 6 10 11 13 17
14 9 3 15 12 9 3 19 34 44 42 49 45 65 71 36 26 23 19 35 56 57 62 64 58 53 55 62 55 56 47 42 30 29 31 33 21 20 13 10 10 5 15 9 5 3 11 16 10
9 4 13 9 5 13 9 10 3 20 19 30 26 36 51 52 36 37 52 62 47 53 64 62 53 51 53 52 53 50 42 37 33 27 30 33 27 20 18 14 11 6 5 11 12 9 4 12 8
16 6 12 7 3 7 6 4 12 4 12 8 17 27 31 29 19 15 49 52 42 50 50 54 45 48 45 47 52 45 44 38 34 27 28 31 34 29 24 15 9 6 4 14 15 9 5 2 6
13 6 7 10 11 2 5 12 16 17 16 21 21 15 30 27 11 16 40 19 25 35 52 53 45 45 49 52 54 47 49 44 38 32 34 27 26 33 23 15 12 10 7 9 12 13 3 12 12
Wind_Direction_850mb
311 324 350 116 75 67 128 235 281 279 299 42 85 93 90 71 135 152 146 156 141 144 143 145 142 137 128 119 111 101 91 81 74 67 61 60 57 52 44 37 29 22 17 14 9 1 355 350 348
300 320 299 264 158 123 222 202 241 253 275 104 93 93 78 73 102 126 132 130 141 144 146 146 141 133 127 118 108 98 89 83 78 74 71 68 60 50 38 27 18 13 4 1 1 357 354 349 346
291 281 240 179 192 208 172 225 213 249 274 193 111 88 74 123 121 136 133 131 137 141 147 141 139 136 124 115 107 99 93 86 79 72 62 50 35 26 16 9 2 357 352 350 347 346 343 341 339
309 267 245 180 261 153 174 210 230 246 275 117 111 79 101 137 131 135 144 157 144 132 143 139 139 129 127 123 113 106 96 87 70 58 45 35 21 12 6 2 357 356 353 350 346 342 338 333 332
309 259 258 278 259 150 212 260 258 209 269 108 104 117 117 135 138 139 154 164 143 139 150 142 136 135 128 118 107 99 89 79 68 51 31 20 18 20 23 23 14 8 0 354 346 340 334 329 327
260 248 327 277 293 168 208 162 207 223 127 112 111 122 118 140 143 148 163 174 152 143 151 142 140 136 126 117 109 101 92 78 59 43 34 37 47 43 38 28 14 5 356 351 342 339 333 328 324
228 294 262 284 273 191 186 195 194 208 151 136 135 123 140 150 159 158 170 163 146 144 151 144 138 130 124 118 112 104 93 78 61 53 47 38 39 39 26 18 360 3 358 357 357 0 354 348 353
257 171 285 272 294 301 306 184 198 208 119 141 136 145 163 163 161 155 164 158 127 135 146 135 130 127 123 119 117 112 99 77 56 48 40 37 27 27 13 3 353 6 15 9 6 18 7 347 333
259 292 262 272 293 233 259 120 134 149 116 133 192 154 152 159 160 153 155 147 154 143 135 129 117 116 120 108 108 103 81 61 47 50 51 31 37 20 5 355 350 5 10 0 7 356 345 342 341
269 244 253 263 282 292 288 228 140 105 82 63 97 125 147 158 167 159 155 161 169 167 147 144 123 116 125 86 79 104 74 38 39 55 77 34 27 11 359 8 343 357 343 338 16 338 348 34 31
257 251 270 278 289 297 217 121 145 99 70 107 112 134 151 168 175 171 169 184 171 172 162 148 136 130 130 103 120 112 343 321 25 15 42 19 18 10 13 23 2 351 347 1 358 11 43 38 15
234 259 258 271 280 293 256 3 177 141 166 154 155 147 163 189 188 179 175 176 168 171 166 155 147 148 146 144 156 182 259 288 315 19 33 13 14 18 28 25 3 353 3 17 25 42 43 24 7
237 251 259 267 276 286 292 337 98 123 150 158 156 162 167 189 196 182 175 166 166 166 167 159 158 168 169 172 178 208 236 261 309 2 15 12 22 41 28 360 351 357 26 35 49 36 39 22 359
269 263 258 268 275 287 300 224 314 167 163 177 181 166 166 190 196 177 168 162 163 167 167 169 176 185 198 191 199 217 226 249 283 318 20 26 38 53 6 357 9 28 39 30 44 51 38 25 31
292 296 308 285 269 275 290 277 252 175 172 162 161 161 177 194 200 185 182 170 172 170 176 182 188 197 199 200 196 189 203 223 283 314 14 31 46 27 8 15 37 57 48 3 60 96 74 35 24
300 299 279 282 276 269 259 257 281 171 161 128 126 135 197 243 228 188 183 184 188 192 203 208 201 199 189 187 189 190 194 217 267 295 352 30 35 29 26 28 58 53 25 317 54 97 89 51 53
285 239 245 264 248 228 182 226 230 182 158 149 146 155 182 216 234 188 188 185 196 205 207 212 204 205 196 188 193 198 200 207 210 247 338 22 49 30 24 23 41 23 323 0 88 74 67 14 357
264 239 269 246 250 231 214 201 228 228 249 166 173 181 202 193 214 186 194 188 194 199 204 210 209 205 189 196 192 196 198 194 208 224 96 8 58 45 29 19 28 36 21 45 112 74 47 28 18
255 292 316 308 321 148 178 212 258 244 196 155 189 195 155 164 185 201 195 188 189 193 202 209 211 203 198 192 192 188 182 188 198 194 10 47 30 93 299 57 40 41 25 47 85 97 76 44 20
3 345 312 309 315 19 0 311 291 281 224 178 185 183 160 149 157 207 194 190 193 196 202 207 212 208 194 194 169 168 168 190 197 336 63 35 28 57 150 103 119 43 13 53 72 122 80 65 40
323 290 291 283 310 335 91 317 288 285 258 210 189 193 159 164 181 189 196 194 194 196 198 209 213 208 192 176 179 180 187 195 203 199 102 26 19 54 116 131 131 73 5 33 71 74 89 73 66
289 256 270 248 324 282 86 278 293 261 269 195 196 193 166 172 185 193 195 195 197 197 204 212 209 202 187 184 196 199 207 206 188 199 53 356 29 78 85 110 115 56 37 47 62 36 78 82 84
243 356 358 344 347 22 310 13 277 304 276 220 209 207 208 201 194 187 196 200 194 198 211 210 202 189 189 192 203 211 192 192 186 198 245 275 113 106 68 72 79 62 31 41 39 45 88 93 87
9 354 352 341 333 312 278 242 288 282 252 267 250 209 216 188 191 181 184 179 185 203 203 199 196 186 188 197 202 191 187 191 193 209 222 141 101 104 102 87 54 119 64 26 40 44 53 117 97
179 53 316 324 337 237 313 324 247 326 47 27 334 36 31 190 159 156 167 165 204 235 216 209 197 189 191 199 192 189 197 210 214 204 189 136 159 165 171 352 199 110 65 23 72 28 37 98 112
337 172 166 294 316 273 276 259 27 41 39 57 27 47 49 67 104 146 161 204 195 204 212 208 202 193 193 194 191 194 199 211 207 194 171 173 219 235 233 309 187 150 134 68 73 21 10 89 80
312 343 298 229 292 7 332 359 20 18 30 47 53 50 59 80 124 145 178 179 181 196 211 218 212 199 198 196 196 197 204 210 200 187 176 201 206 209 238 261 191 234 165 184 196 305 31 84 40
214 6 23 18 47 315 355 61 19 343 7 37 40 55 90 100 106 148 165 176 178 228 212 209 215 205 202 202 202 202 201 202 194 190 190 192 203 209 220 194 213 228 183 175 190 209 29 81 49
347 28 59 118 178 238 312 224 210 134 304 316 91 68 71 98 86 204 187 190 277 210 200 211 213 202 203 204 207 199 195 202 207 204 209 202 213 213 210 215 195 186 307 196 212 193 87 297 311
283 1 105 102 295 127 139 269 206 210 197 253 114 8 62 75 106 161 228 218 172 216 204 207 212 209 208 208 211 198 198 205 212 211 207 214 213 220 222 172 197 201 254 255 199 174 259 241 272